Skip Page Navigation
NASA JPL Caltech
NASA Logo - Jet Propulsion Laboratory + View the NASA Portal
+ Near-Earth Object (NEO) Program
Search JPL
JPL Home Earth Solar System Stars & Galaxies Technology
JPL Solar System Dynamics
BODIES ORBITS EPHEMERIDES TOOLS PHYSICAL DATA DISCOVERY FAQ SITE MAP
JPL Small-Body Database Browser
Search: [ help ]  
79144 Cervantes (1992 CM3)
Classification: Main-belt Asteroid          SPK-ID: 2079144
Ephemeris | Orbit Diagram | Orbital Elements | Physical Parameters | Discovery Circumstances ]

[ show orbit diagram ]
Orbital Elements at Epoch 2456400.5 (2013-Apr-18.0) TDB
Reference: MPO257359 (heliocentric ecliptic J2000)
 Element Value Uncertainty (1-sigma)   Units 
e 0.3321539 n/a  
a 2.6406886 n/a AU
q 1.7635736 n/a AU
i 29.03886 n/a deg
node 134.07955 n/a deg
peri 104.73812 n/a deg
M 264.04155 n/a deg
tp 2456818.2870166
(2014-Jun-09.78701660)
n/a JED
period 1567.3796938
4.29
n/a
n/a
d
yr
n 0.22968270 n/a deg/d
Q 3.5178036 n/a AU
  Orbit Determination Parameters
   # obs. used (total)      378  
   first obs. used      1954-??-??  
   last obs. used      2013-03-05  
   # oppositions      12  
   planetary ephem.      DE403  
   condition code      0  
   fit RMS      0.52  
   data source      MPC:mpn  
   producer      MPCLINUX  

Additional Information
 T_jup = 3.145 

Ephemeris | Orbit Diagram | Orbital Elements | Physical Parameters | Discovery Circumstances ]

Physical Parameter Table
Parameter Symbol Value Units Sigma Reference Notes
absolute magnitude H 13.7 mag n/a MPO257359  

79144 Cervantes           Discovered 1992 Feb. 2 by E. W. Elst at the European Southern Observatory.
Miguel de Cervantes (1547-1616) was a Spanish novelist best known for Don Quijote (1605). In his eight comic sketches Entremeses, he introduced elements from the novel, creating clear pictures of the everyday life of his time. His first major work was La Galatea (1585).
NOTE: some special characters may not display properly (any characters within {} are an attempt to place the proper accent above a character)
Reference: 20050919/MPCPages.arcLast Updated: 2005-09-26

Alternate Designations
 1992 CM3 = 2001 CW43 
Ephemeris | Orbit Diagram | Orbital Elements | Physical Parameters | Discovery Circumstances ]
ABOUT SSD CREDITS/AWARDS PRIVACY/COPYRIGHT GLOSSARY LINKS
FirstGov 2013-Jun-20 09:43 UT
(server date/time)  
NASA Home Page
Site Manager:   Donald K. Yeomans
Webmaster  Alan B. Chamberlin